Theta_e
333 335 333 333 333 332 330 327 322 316 314 320 323 325 324 324 322 322 325 312 306 306 307 310 312 315 315 316 317 319 320 321 322 322 323 324 326 326
331 330 330 331 331 331 329 327 324 322 316 320 324 327 324 323 321 323 325 314 307 305 304 306 308 310 311 312 313 314 316 318 319 320 321 322 324 325
329 328 328 329 327 326 326 326 325 323 317 319 322 326 320 320 321 321 323 324 324 304 304 304 304 305 307 307 308 309 311 312 314 316 318 320 321 322
326 325 326 327 327 329 329 325 325 324 321 317 321 319 318 321 321 319 320 324 325 310 304 304 304 303 303 304 304 305 305 306 308 309 311 313 315 316
324 325 326 327 327 327 325 324 323 322 323 319 317 322 321 322 318 319 319 320 322 305 302 301 302 302 302 302 302 302 302 302 302 302 303 304 306 308
322 325 325 324 323 323 323 321 320 320 319 317 317 315 316 317 318 316 315 317 309 311 301 302 302 300 300 299 299 299 299 298 298 297 296 295 296 299
320 320 320 311 302 302 311 320 322 319 317 316 314 314 313 312 312 315 314 307 303 303 300 301 302 301 299 297 298 297 296 295 295 295 294 293 293 294
302 301 305 305 304 296 296 295 299 315 318 316 314 313 313 313 314 314 312 301 298 300 297 293 299 297 297 297 295 294 294 294 293 293 293 292 291 291
291 291 294 298 297 300 299 294 291 289 290 301 315 314 313 314 314 312 310 306 306 297 295 288 292 290 293 293 293 292 292 291 291 291 290 288 287 286
286 286 288 291 291 292 297 294 289 288 287 290 290 293 300 315 316 314 311 300 292 293 292 285 288 287 289 290 290 290 289 288 288 287 286 285 285 284
284 285 285 286 287 289 293 290 287 287 288 288 287 287 287 288 298 313 295 295 286 286 286 286 285 284 286 286 287 288 287 287 286 285 285 284 284 283
282 282 283 284 285 286 287 288 285 284 285 286 286 286 285 285 286 287 301 300 287 285 286 286 284 284 280 285 285 285 286 286 286 285 284 283 283 283
279 279 281 283 283 283 283 283 283 284 283 282 282 282 282 281 281 283 284 286 288 285 286 287 285 284 282 279 279 283 285 284 284 283 283 282 281 282
278 279 280 281 282 282 281 281 281 281 281 279 278 278 278 278 278 279 280 281 282 282 284 285 285 284 280 277 274 278 279 280 281 280 280 280 280 279
281 281 281 280 280 279 280 280 279 279 278 276 276 276 278 279 280 280 280 280 279 280 282 284 284 282 282 277 275 276 277 279 281 280 281 281 281 282
283 283 282 282 281 280 279 279 280 280 277 276 276 277 278 278 277 278 278 278 277 276 279 281 282 282 279 279 278 278 278 277 280 280 280 281 281 282
283 283 282 282 281 281 281 280 281 280 279 279 278 278 277 277 276 278 277 277 276 275 276 277 279 279 280 280 278 279 279 279 280 279 279 278 280 282
281 279 278 279 278 279 279 279 279 279 280 279 279 279 278 278 278 277 277 276 275 275 276 278 278 277 276 276 279 277 277 276 277 277 277 277 277 280
278 277 277 277 277 277 277 277 277 277 278 278 278 278 278 278 278 277 276 275 274 274 274 276 277 278 275 271 274 277 275 275 275 275 276 276 276 278
277 276 276 276 276 276 276 275 276 277 277 277 277 277 277 277 276 275 275 274 273 273 272 273 274 276 275 273 272 272 275 275 275 275 275 275 276 276
274 274 275 275 275 275 275 275 275 275 275 276 276 276 276 276 275 274 274 273 273 272 271 271 272 275 276 276 272 271 272 272 272 273 274 274 274 275
273 273 273 273 273 273 274 274 275 274 274 275 275 276 276 275 274 274 274 273 273 272 271 272 274 274 274 274 271 271 272 273 272 271 270 270 273 273
271 272 272 272 272 272 272 272 272 273 272 273 273 274 274 274 274 274 274 273 273 272 272 272 273 273 272 272 272 271 270 271 273 273 274 271 271 271
Wind_Speed
16 14 12 10 11 10 10 10 9 9 8 9 9 13 10 10 13 12 18 21 22 20 20 18 18 17 17 17 17 17 18 18 19 18 18 18 18 18
11 12 11 9 9 9 9 9 10 11 12 7 11 12 12 10 13 15 16 15 24 21 19 19 19 18 18 17 16 15 15 14 14 14 13 13 14 13
11 10 12 10 7 8 8 9 10 9 11 9 7 10 10 12 11 13 14 13 14 21 22 22 20 19 18 17 17 16 15 15 14 14 14 14 14 14
10 10 11 7 12 14 12 12 12 12 10 15 10 8 12 15 14 14 14 13 14 21 24 22 21 20 19 18 17 16 15 13 13 12 11 11 10 10
6 8 11 12 13 11 11 11 10 9 11 11 11 11 11 11 12 11 13 13 11 6 13 15 17 17 17 16 16 15 14 13 12 10 10 10 10 9
4 7 9 11 13 14 12 12 12 12 12 11 10 7 8 9 11 11 9 6 5 6 7 4 8 10 11 12 14 13 14 15 16 17 17 15 16 16
5 5 6 9 11 10 8 12 13 12 13 12 11 9 9 7 14 9 10 6 4 4 5 5 6 6 7 11 14 20 21 21 22 22 22 21 20 18
8 10 10 11 10 14 13 13 16 16 14 11 12 12 15 12 10 11 11 7 6 5 6 2 4 6 6 6 14 20 21 22 22 22 23 22 21 19
11 11 9 9 11 13 13 7 8 9 3 8 15 16 16 16 14 15 14 14 10 8 9 4 2 5 5 9 16 19 21 22 22 23 23 22 21 20
12 13 11 12 12 12 9 6 7 9 12 6 3 7 7 14 17 19 17 9 7 7 4 5 2 5 6 8 18 19 20 23 24 23 22 20 19 18
12 15 14 13 20 14 5 4 5 6 6 12 15 15 18 21 5 8 7 12 3 3 1 7 4 7 4 7 9 18 21 20 22 22 20 18 15 15
9 11 23 18 22 20 10 7 7 9 10 9 9 12 16 16 21 10 9 15 6 3 4 7 11 7 5 2 6 7 8 18 19 20 17 14 11 6
8 7 9 21 22 21 20 12 10 7 10 11 10 9 10 12 11 11 11 6 3 4 5 5 8 6 3 7 2 4 7 9 8 10 14 10 6 3
9 7 9 18 23 23 15 23 20 11 8 10 9 10 10 10 10 11 13 14 13 11 7 3 6 5 7 7 6 4 7 7 7 7 5 6 5 7
9 12 17 19 19 15 24 22 14 9 9 10 9 9 9 8 9 11 12 14 19 17 11 11 9 10 6 7 9 7 6 4 5 5 5 6 5 5
10 9 10 10 14 12 12 13 9 9 8 8 8 7 7 9 11 10 9 8 12 13 17 17 14 12 11 10 11 9 8 5 6 5 5 4 3 1
7 8 9 10 10 10 10 11 10 9 9 8 7 8 8 8 10 8 9 9 11 10 11 12 16 17 13 12 11 9 8 7 6 5 4 4 3 3
9 10 10 10 10 10 10 9 10 10 9 8 8 8 8 8 8 8 9 10 9 9 9 8 8 9 8 13 15 8 7 7 5 4 3 2 3 4
9 9 9 8 8 8 8 8 8 9 8 8 7 7 7 7 8 8 8 8 9 8 8 6 5 4 7 6 3 14 5 4 4 4 2 2 2 2
9 9 9 9 8 8 8 7 7 7 7 7 7 7 7 6 6 7 7 7 7 7 7 6 6 6 6 4 5 5 12 4 2 2 1 1 3 5
9 8 8 8 8 8 7 7 7 7 7 6 6 6 6 5 6 6 7 7 7 6 7 6 5 5 5 7 7 6 5 6 4 2 2 3 2 2
8 8 8 8 8 8 7 7 6 6 6 5 6 6 5 5 5 5 5 5 5 6 6 5 5 4 4 5 6 6 4 3 5 4 2 3 4 3
8 8 7 7 8 7 7 7 7 6 6 6 6 5 5 4 4 4 4 4 4 5 5 5 5 5 5 5 5 5 5 3 1 2 6 7 3 6
Wind_Direction
216 212 217 224 228 230 229 226 229 245 223 232 229 207 205 201 208 200 213 194 204 201 199 199 201 202 205 206 206 210 216 217 217 219 222 227 229 235
209 209 212 222 224 228 222 226 230 240 261 213 228 226 204 207 207 213 215 206 199 203 201 202 204 205 207 206 208 210 210 210 212 215 219 224 229 238
205 205 215 210 216 215 220 223 228 231 243 251 244 227 194 208 214 205 212 211 206 201 203 205 205 206 207 207 211 215 212 211 214 217 222 228 232 236
199 204 210 207 226 231 227 225 229 228 229 243 226 205 203 209 210 204 208 210 212 192 204 204 206 206 207 208 210 213 212 208 204 203 207 218 225 227
206 221 236 240 245 247 245 236 232 240 240 236 237 214 208 205 206 212 209 212 215 121 190 197 203 203 203 205 205 200 197 191 188 183 180 181 179 168
216 243 253 256 259 260 259 260 253 242 230 230 229 211 198 199 204 204 207 202 143 139 72 83 188 187 190 189 185 171 155 142 133 125 117 111 107 108
235 275 297 337 318 323 308 281 255 241 242 221 222 220 205 192 198 194 199 150 118 139 118 131 131 126 127 132 141 140 136 133 129 123 119 114 110 110
19 1 345 318 349 321 299 292 265 265 246 236 228 224 210 207 198 197 185 164 183 184 124 103 130 130 132 137 135 133 131 130 128 127 122 119 116 116
35 10 348 350 338 327 313 325 17 13 323 279 247 218 219 208 197 194 188 193 193 156 128 111 102 107 104 119 130 129 130 128 128 126 124 123 121 120
47 25 10 355 350 328 331 341 29 31 17 340 3 330 278 213 203 197 186 153 79 135 138 114 129 111 123 116 126 128 130 128 126 123 121 120 125 128
39 35 22 15 4 358 23 35 32 25 342 33 44 41 33 20 319 193 139 154 122 157 223 112 147 109 98 112 121 131 124 130 122 120 123 126 133 128
33 34 30 28 26 29 39 30 44 9 358 9 6 24 38 26 24 18 171 180 135 100 215 104 144 140 119 85 134 133 131 124 132 125 124 130 138 141
32 22 32 32 39 40 48 40 34 30 24 35 15 11 34 40 24 22 32 45 107 86 145 108 162 133 106 124 96 99 152 122 120 110 112 118 122 63
31 23 29 33 45 44 45 49 42 38 41 49 32 24 25 37 36 36 44 57 59 61 47 42 137 138 135 128 128 129 102 98 115 120 125 133 130 83
39 35 37 33 31 37 44 45 41 42 48 52 48 30 20 26 40 49 41 56 65 50 43 53 85 105 109 106 128 126 120 119 121 125 160 173 154 166
25 32 40 43 43 38 36 34 37 42 50 61 49 35 36 29 39 37 47 46 54 62 44 50 66 87 99 99 113 116 123 136 145 158 156 135 127 137
18 33 34 32 34 35 41 35 37 41 39 36 48 54 46 45 44 41 50 61 63 62 63 57 61 66 67 88 101 106 109 114 118 113 131 145 173 192
37 35 33 32 30 27 28 31 31 28 30 37 43 47 52 53 62 55 55 61 69 61 69 74 83 88 76 56 46 101 103 108 116 119 119 160 205 179
39 32 31 28 24 29 27 25 23 23 20 29 37 46 49 50 54 65 68 72 73 73 64 55 57 91 116 97 69 28 113 119 142 157 169 207 237 252
35 28 25 23 22 23 24 21 20 20 26 26 33 37 43 53 63 67 68 81 85 83 75 59 51 36 99 118 122 85 23 122 115 137 181 276 265 242
22 26 22 17 15 17 17 21 23 33 21 27 39 40 37 53 69 71 72 79 98 97 90 81 78 77 96 109 114 132 111 71 40 2 338 293 289 265
10 15 15 15 13 8 13 4 20 19 28 32 31 34 44 61 69 73 78 83 80 85 89 95 107 117 131 111 107 128 111 64 148 142 102 7 352 309
5 359 10 12 4 8 8 12 11 19 16 21 19 40 27 51 57 71 81 81 92 100 108 111 108 100 85 76 94 106 110 116 78 161 158 164 253 274